Location: Namasale
(1.5000°N, 32.6167°E)
Time: 23:02:38
(UTC+00:00)

Vanguard 3 - Pass Details

Date: 01 December 2021
Orbit: 508 x 3260 km, 33.3° (Epoch: 27 January)

Event Time Altitude Azimuth Distance (km) Brightness Sun altitude
Rises 19:38:45 0° 205° (SSW) 4,565 11.5 -54.4°
Reaches altitude 10° 19:42:23 10° 190° (S) 4,000 10.9 -55.1°
Enters shadow 19:46:31 19° 167° (SSE) 3,722 10.5 -55.9°
